Vertical_Velocity
13 2 5 5 -0 6 3 4 -15 14 -19 3 9 -2 -5 1 9 -3 6 6 2 5 6 2 -8 2 -3 -2 -1 1 0 -2 1 -2 4 -9 -2 7 2 -1 -1 1 17 20
9 -4 -7 -12 3 -6 1 4 -21 -0 -31 -4 20 -16 0 2 10 6 2 1 0 3 5 5 3 -6 3 -1 1 3 3 1 -1 3 -5 -2 0 1 -4 0 10 -9 13 5
-0 -9 -2 -5 9 2 -7 -9 -12 -9 4 8 6 -7 1 -6 4 1 1 3 -1 2 6 4 5 -0 -3 2 3 2 5 6 3 1 2 -2 -4 -2 2 1 -3 -3 7 4
5 3 -5 4 3 -0 -10 4 -10 -21 4 -16 1 3 -1 4 2 -2 -4 11 2 2 -4 0 7 6 0 -5 -3 -2 -1 1 1 -4 1 -4 -2 -3 1 6 0 3 -3 -3
1 -2 -7 -4 -3 -3 -5 15 -6 -11 -8 -12 -6 -11 2 3 -3 15 -3 3 -3 -3 2 1 -5 0 4 1 -2 -2 -5 -3 -1 3 2 3 3 -5 2 -5 -0 2 -1 -1
2 -1 -3 -5 3 -2 3 -5 -7 -13 -7 -3 -6 -26 2 10 -8 1 11 3 8 -4 3 2 5 -3 -1 -2 -5 -3 -4 -5 -2 -4 -6 -3 -2 5 -5 1 1 5 -9 3
-6 -1 -4 4 2 3 -8 5 2 -9 -5 -6 -23 -7 13 -29 0 -8 -5 10 2 5 5 2 5 3 5 -2 2 1 -3 -0 -0 -3 -4 -1 3 4 5 -2 -2 -4 -7 0
-1 1 2 3 -6 -3 -0 2 -3 2 -2 -12 -7 -0 -9 14 -2 -10 3 7 -0 -4 19 8 10 9 5 1 2 2 4 2 2 1 1 2 1 -2 -2 -0 -8 -2 -6 -2
2 1 3 1 2 1 -1 3 5 2 1 1 1 -9 -6 20 -6 -13 -18 2 -4 14 5 2 8 5 0 1 -3 -0 -1 2 2 2 2 1 -1 -0 -0 0 -4 -2 5 8
4 -1 2 2 -3 -1 2 2 3 0 -11 3 2 4 7 0 -6 2 9 6 2 0 5 2 -2 3 -2 1 -0 -4 -1 2 1 -0 -1 -2 1 1 1 3 1 3 -1 -1
1 -3 -1 3 1 -1 1 1 -11 -7 26 4 6 0 -6 -4 -5 11 -1 4 8 6 4 4 -3 -5 1 -8 0 -2 -1 -0 2 0 -1 -1 -3 -2 -5 -5 0 -1 -1 -1
1 -5 -3 -1 -2 -0 -0 0 -0 -1 9 5 -5 -2 10 4 12 -9 -8 28 6 0 5 -1 -2 0 -3 3 -6 -5 -4 0 -2 1 0 1 -0 -0 -1 -1 -0 -2 -3 -3
1 -3 -1 2 1 1 4 -2 -3 2 7 13 23 11 17 5 17 12 4 43 7 -2 11 3 -1 0 -0 3 -7 -5 -3 -1 -2 -2 -2 -1 1 2 1 1 -2 -0 -3 -2
1 1 3 1 3 3 -2 -0 -3 -2 4 6 9 7 12 16 9 28 23 15 -1 6 1 1 1 -2 1 -1 -4 -5 -2 -2 -3 -4 -4 -4 -3 -1 0 -0 -2 -3 -2 -2
3 4 1 3 4 -2 -2 1 2 -1 -2 -1 1 -2 -2 -5 21 2 -1 7 15 32 11 -10 -4 -1 -2 -3 -4 -3 -2 -1 -0 -0 -2 -3 -4 -3 -3 -3 -0 1 -0 -0
2 3 3 4 6 4 4 2 2 3 1 5 4 3 2 7 16 14 12 0 -13 9 16 -1 2 4 1 -1 -0 -1 -0 -1 -1 -1 -1 -1 -0 -0 -1 -1 0 -0 -0 -0
-1 -1 2 4 5 4 6 6 6 3 2 2 7 14 7 2 11 17 14 12 14 9 16 17 6 3 1 2 0 0 -1 1 2 1 1 1 -1 -1 1 2 1 -0 1 1
2 2 2 1 1 1 1 2 2 3 1 -0 2 4 8 10 11 11 16 11 11 9 2 1 3 3 3 2 0 -2 -1 1 -0 3 1 1 -0 0 1 0 -1 -1 -1 -1
-2 -1 -3 0 0 -0 1 2 1 3 4 5 5 5 4 2 1 3 4 4 9 7 4 4 4 1 -0 -0 2 2 4 0 2 1 1 1 0 0 -0 -1 -0 -0 -0 -0
-3 -3 -1 1 1 -1 -3 1 2 -1 -3 1 2 1 -0 1 3 4 3 2 2 2 1 2 1 0 1 2 0 1 1 1 1 1 0 1 2 -0 -1 -0 -0 -0 -0 -0
-1 -1 -3 -5 -5 -1 -0 -2 -3 1 0 -1 -1 -1 1 3 4 2 2 1 -0 -0 -1 0 -0 2 -2 2 0 1 3 3 1 0 -1 -0 0 -0 -0 -0 -0 -0 -1 -1
-2 -3 -3 -3 -3 -4 -4 -3 -2 -3 -4 -2 -1 -1 -1 -1 -2 -1 -2 -2 1 -2 -0 -1 -0 3 -4 1 1 1 -1 -2 -2 -1 -1 -0 -0 -1 -1 -1 -1 -1 -1 -1
-4 -3 -4 -4 -3 -3 -4 -1 -0 1 -2 -2 -3 -2 -4 -3 -3 -2 -1 -1 -2 3 -6 -0 -2 2 -5 1 -1 -0 -0 -1 -2 -2 -4 -2 -2 -2 -2 -2 -3 -3 -3 -2
-1 -2 -3 -4 -4 -3 -4 -3 -3 -3 -2 -2 1 2 -1 -4 -3 -1 -2 -3 -3 1 -3 -3 -1 1 -2 1 0 1 0 -0 1 1 -0 1 -1 -1 -1 -2 -2 -1 -1 -2
-1 -1 -0 -1 -2 -3 -4 -4 -5 -2 -1 -2 -1 -1 -2 -1 1 1 1 -1 -3 -0 -2 0 1 1 -1 -1 -3 -1 -1 0 0 -0 1 1 2 1 0 -0 -0 -1 -1 -2
-3 -1 -1 -1 1 -1 -3 -3 -2 -3 -2 -4 -3 -1 -1 -0 -1 -1 -2 -0 -1 -0 1 1 -0 -2 -2 -1 -1 0 -0 -1 -0 -2 -4 -3 -2 -2 -3 -3 -3 -1 -0 -2
-4 -2 0 -1 -2 0 0 -0 0 -3 -2 1 -2 -3 -1 -2 -1 -1 -0 -1 -1 -2 -2 -1 -1 -0 -1 0 1 1 -0 -0 1 -0 -0 -0 -1 -2 -3 -3 -3 -3 -1 -2
Height
5447 5455 5462 5468 5475 5480 5484 5490 5493 5509 5509 5523 5531 5532 5537 5543 5550 5556 5562 5568 5572 5576 5581 5583 5590 5598 5605 5613 5618 5622 5626 5630 5634 5638 5640 5645 5645 5651 5659 5665 5671 5675 5678 5683
5435 5440 5444 5453 5459 5460 5464 5471 5477 5487 5501 5502 5511 5514 5525 5533 5538 5544 5549 5554 5560 5567 5573 5577 5580 5586 5594 5601 5608 5613 5618 5622 5627 5632 5637 5639 5641 5645 5650 5654 5659 5662 5665 5670
5427 5425 5429 5437 5443 5447 5452 5458 5464 5471 5491 5476 5487 5499 5509 5518 5525 5529 5534 5543 5549 5557 5564 5569 5574 5578 5583 5589 5597 5603 5608 5613 5617 5622 5627 5633 5636 5638 5639 5642 5646 5650 5653 5657
5422 5422 5423 5424 5425 5427 5435 5446 5441 5452 5466 5453 5471 5482 5495 5504 5512 5516 5525 5533 5536 5544 5552 5561 5566 5572 5576 5581 5585 5592 5598 5604 5608 5612 5616 5620 5624 5627 5629 5632 5635 5638 5641 5642
5418 5418 5419 5418 5419 5421 5422 5430 5427 5432 5440 5445 5451 5461 5483 5491 5499 5505 5513 5522 5525 5531 5538 5548 5556 5564 5570 5574 5579 5584 5589 5594 5599 5603 5606 5610 5614 5617 5619 5622 5624 5627 5629 5632
5415 5416 5415 5414 5416 5416 5416 5417 5418 5417 5421 5424 5427 5433 5473 5473 5480 5492 5499 5512 5516 5523 5529 5535 5543 5552 5560 5566 5570 5576 5581 5586 5590 5594 5598 5602 5605 5608 5611 5613 5616 5617 5620 5624
5408 5409 5409 5408 5407 5409 5408 5411 5409 5409 5408 5406 5405 5416 5439 5451 5461 5471 5485 5496 5506 5513 5520 5527 5533 5540 5548 5555 5562 5568 5573 5577 5582 5585 5590 5593 5596 5598 5600 5602 5605 5607 5612 5613
5404 5403 5405 5403 5402 5401 5402 5403 5402 5402 5399 5397 5397 5402 5408 5420 5431 5445 5462 5477 5491 5502 5511 5516 5524 5529 5537 5545 5553 5559 5564 5567 5571 5576 5580 5584 5586 5588 5591 5592 5594 5597 5600 5603
5403 5402 5403 5401 5399 5397 5398 5397 5395 5393 5391 5387 5385 5390 5396 5398 5402 5419 5443 5465 5480 5489 5496 5505 5512 5520 5527 5535 5541 5548 5552 5557 5561 5566 5569 5573 5575 5578 5581 5584 5586 5589 5590 5589
5404 5403 5402 5399 5397 5395 5395 5394 5391 5386 5385 5381 5379 5380 5385 5389 5397 5408 5426 5446 5464 5478 5490 5495 5503 5511 5518 5526 5532 5538 5541 5544 5549 5554 5558 5562 5565 5567 5570 5573 5576 5577 5578 5579
5407 5406 5402 5399 5397 5396 5394 5390 5388 5381 5380 5376 5376 5377 5377 5382 5390 5406 5416 5432 5451 5465 5477 5487 5495 5502 5509 5517 5522 5526 5530 5534 5538 5542 5546 5550 5553 5555 5558 5561 5563 5564 5566 5568
5404 5403 5403 5399 5397 5396 5393 5391 5388 5383 5382 5380 5378 5375 5377 5387 5397 5406 5421 5435 5444 5456 5469 5478 5487 5495 5503 5509 5513 5515 5519 5523 5527 5531 5534 5537 5541 5544 5547 5549 5550 5552 5553 5555
5410 5406 5404 5401 5399 5397 5395 5393 5390 5387 5385 5386 5388 5389 5388 5394 5402 5411 5423 5430 5443 5455 5464 5472 5481 5488 5496 5499 5503 5507 5510 5513 5516 5520 5523 5526 5528 5531 5534 5536 5537 5539 5541 5543
5413 5411 5411 5410 5407 5402 5398 5396 5395 5392 5391 5392 5391 5394 5397 5400 5406 5419 5426 5435 5444 5451 5460 5467 5475 5480 5484 5488 5493 5496 5499 5502 5505 5508 5511 5514 5516 5518 5519 5522 5524 5526 5528 5530
5420 5419 5416 5412 5409 5407 5404 5401 5399 5399 5397 5397 5398 5400 5403 5406 5414 5420 5428 5434 5442 5448 5454 5460 5466 5470 5475 5480 5483 5487 5490 5492 5495 5496 5499 5501 5503 5505 5507 5509 5511 5513 5515 5517
5425 5422 5419 5417 5415 5413 5411 5409 5407 5405 5403 5402 5401 5402 5404 5407 5414 5420 5427 5434 5442 5446 5450 5455 5460 5464 5468 5473 5476 5479 5481 5483 5485 5486 5488 5489 5491 5493 5495 5496 5498 5500 5502 5504
5424 5423 5422 5421 5420 5418 5417 5415 5412 5411 5410 5409 5410 5410 5412 5414 5418 5423 5428 5434 5439 5443 5447 5451 5455 5459 5462 5465 5468 5471 5473 5474 5476 5478 5479 5480 5482 5483 5484 5486 5487 5489 5491 5492
5426 5425 5424 5422 5421 5419 5418 5417 5415 5414 5414 5414 5415 5416 5417 5419 5422 5426 5429 5432 5435 5438 5442 5446 5449 5452 5455 5457 5460 5462 5464 5467 5469 5470 5472 5473 5474 5476 5477 5478 5479 5480 5481 5482
5425 5423 5421 5420 5420 5419 5417 5416 5415 5415 5415 5415 5415 5415 5416 5418 5420 5423 5425 5428 5431 5434 5438 5440 5443 5446 5448 5450 5452 5454 5456 5458 5460 5462 5463 5465 5466 5468 5469 5470 5471 5472 5472 5473
5422 5420 5418 5417 5416 5415 5415 5414 5413 5413 5413 5413 5412 5413 5414 5415 5417 5419 5422 5425 5427 5429 5431 5433 5436 5438 5440 5442 5444 5446 5448 5449 5451 5453 5455 5456 5457 5458 5459 5460 5461 5461 5462 5462
5415 5414 5413 5411 5410 5409 5408 5407 5408 5408 5409 5409 5409 5410 5411 5412 5413 5415 5417 5418 5419 5421 5423 5425 5427 5429 5431 5433 5435 5437 5438 5440 5442 5443 5445 5446 5447 5448 5449 5450 5451 5451 5451 5451
5403 5402 5401 5401 5400 5399 5400 5400 5400 5399 5399 5400 5401 5402 5403 5404 5405 5406 5407 5409 5410 5411 5413 5415 5417 5419 5420 5422 5424 5425 5427 5429 5430 5432 5433 5435 5436 5437 5438 5439 5439 5439 5439 5440
5396 5392 5389 5386 5384 5383 5383 5384 5385 5388 5389 5389 5389 5390 5391 5392 5393 5395 5396 5397 5398 5400 5401 5403 5405 5407 5408 5410 5411 5413 5415 5416 5418 5419 5421 5422 5423 5424 5424 5425 5425 5425 5425 5425
5386 5382 5378 5375 5373 5371 5369 5367 5367 5367 5368 5370 5372 5374 5375 5376 5379 5381 5382 5383 5385 5386 5387 5390 5392 5393 5395 5397 5398 5399 5400 5402 5403 5405 5406 5407 5408 5408 5409 5409 5409 5409 5408 5408
5376 5371 5367 5363 5359 5356 5354 5352 5351 5351 5351 5351 5352 5353 5355 5357 5359 5360 5363 5364 5366 5368 5370 5372 5373 5375 5377 5379 5381 5382 5383 5385 5386 5387 5388 5389 5389 5390 5390 5390 5390 5389 5389 5388
5367 5362 5357 5352 5349 5345 5341 5339 5337 5335 5334 5333 5333 5334 5335 5336 5337 5339 5340 5342 5344 5347 5349 5351 5353 5355 5357 5359 5360 5362 5363 5365 5366 5367 5368 5369 5369 5369 5369 5369 5369 5369 5368 5366
5359 5353 5348 5342 5337 5334 5330 5327 5324 5321 5320 5318 5316 5315 5316 5317 5318 5319 5320 5322 5323 5325 5327 5329 5331 5333 5335 5337 5339 5341 5342 5344 5345 5346 5347 5347 5348 5348 5348 5347 5347 5346 5345 5344